STARLINK-3283, 50179

Orbit data source: Space-Track

STARLINK-3283, 50179 is a payload satellite owned by SpaceX/Seattle (US) in LEO that was launched on Sat, 18 Dec 2021 UTC via an FALCON 9 launch vehicle from the Air Force Western Test Range (AFWTR). Payload-class satellites include a variety of spacecraft equipped with specific instruments for various scientific and technological missions. These include communications satellites like Starlink; space stations such as the ISS; scientific satellites like the Hubble; Earth observation satellites from companies like Planet Labs, Umbra, and HawkEye 360; GPS; miniature CubeSats for education and research; and military/defense satellites.

Loading next visibility...
Identifier
50179, 2021-125Z
Orbit
LEO
Country
Flag of USUS
Related business
Manufacturer
SpaceX/Seattle
Mission
Operational Commercial Communications
Bus & Motor
STARLINK, Unknown motor
Mass
290 kg wet, ~270 kg dry
Launch date (UTC)
2021-12-18 (5 years ago)
Launch vehicle
FALCON 9
Launch site
Air Force Western Test Range (AFWTR)
Object type
Payload
Rocket body
Debris
Shape & HBR
Box + 1 Pan, 10.1 m
Radar Cross Section
13.562 m², Large (>1 m²)

Expand to show TLE details & history
Last TLE update: 20 hours ago

TLE from 20 hours ago
0 STARLINK-3283
1 50179U 21125Z   26169.37660366  .00000388  00000-0  42445-4 0  9996
2 50179  53.1600 157.0161 0001348  73.0552 287.0587 15.08840079251803
Epoch: 2026-06-18T09:02Z
TLE epoch observation values (Epoch: 2026-06-18T09:02:18.556Z)
Latitude
-0.00002°
Longitude
114.81795°
Altitude
540.361 km
Speed
7.594 km/s
True Right ascension
10h 28m 03s
True Declination
0° 00' 00"
Sunlit
Object was in daylight at epoch
Visualization orbit readout
Latitude
Unknown
Longitude
Unknown
Altitude
Unknown
Speed
Unknown
Apparent Right ascension
Unknown
Apparent Declination
Unknown
Sunlit
N/A
Visualization observer readout
Local Sidereal Time
15:35:58
Azimuth
Unknown
Elevation
Unknown
Doppler factor
Unknown
Orbital elements
Apogee altitude
540.93 km
Perigee altitude
539.065 km
Semi-major axis
6,918.134 km
Eccentricity
0.00013
Inclination
53.16°
RAAN
157.0161°
Arg. of periapsis
73.0552°
True anomaly
287.04393°
Mean anomaly
287.0587°
Eccentric anomaly
287.05132°
Mean motion
3.7719 °/min
Orbital period
95.44 mins
BSTAR
0.000042445
Loading maneuver chart data...
Computing Atmospheric mass density...
Loading historical data...
Loading historical data...
Loading historical data...
Loading historical data...
Loading historical data...
Loading historical data...
Loading historical data...

Documentation

Showing up to 5 results
|